{"data":{"norad_id":62499,"epoch":"2026-09-21T16:38:15.599040Z","epoch_age_seconds":71441,"freshness":"FRESH","line1":"1 62499U 25003N   26264.69323610  .00008178  00000+0  30636-3 0  9994","line2":"2 62499  42.9984 262.4018 0000545   2.8282 357.2573 15.27579755 96647","mean_motion":15.27579755,"eccentricity":5.45e-5,"inclination_deg":42.9984,"raan_deg":262.4018,"arg_perigee_deg":2.8282,"mean_anomaly_deg":357.2573,"bstar":0.00030636,"rev_number":9664,"period_min":94.26676383257,"perigee_km":482.67589497567,"apogee_km":483.42376434011,"semimajor_km":6861.1868296579,"source":"CELESTRAK","updated_at":"2026-09-22T09:00:49.618671Z"}}